User: anonymous   Login
Location: Unnamed
(23.5608°S, 46.6833°W)
Time: 09:36:47
(UTC-03:00)
Language:

CAS-4B - Orbit

View from above orbital plane
View from above orbital plane
View from above satellite
View from above satellite

Ground track
Ground track

The orbit data is extracted from the following two-line orbital elements,

1 42759U 17034B   24205.95759668  .00026899  00000-0  92022-3 0  9992
2 42759  43.0174  18.5298 0012897 237.4556 122.5051 15.29678431393030
Epoch (UTC): 23 July 2024 22:58:56
Eccentricity: 0.0012897
inclination: 43.0174°
perigee height: 468 km
apogee height: 485 km
right ascension of ascending node: 18.5298°
argument of perigee: 237.4556°
revolutions per day: 15.29678431
mean anomaly at epoch: 122.5051°
orbit number at epoch: 39303

The dashed part of the orbit path shows where the satellite is in the earth's shadow,  

DLR